www.pogodaiklimat.ru

Погода и климат >> Архив погоды >> Россия >> Калининградская область >> Мамоново


ПОГОДА в Мамоново

  • Прогноз погоды в Мамоново
  • Монитор погоды в Мамоново

АРХИВ ПОГОДЫ в Мамоново

Время (UTC), дата Ветер
(напр.,м/с)
 
Видим.   Явления Облачность Т
(С)
Тd
(С)
f
(%)
Тe
(С)
Тes
(С)
Комфортность P
(гПа)
Po
(гПа)
Тmin
(С)
Tmax
(С)
R
(мм)
R24
(мм)
S
(см)
09 17.04 СВ 3-6
{6}
10 км ясно +16.3 +0.3 34 +16 +25 1029.8 1026.9
12 17.04 С 4-6
{8}
10 км ясно +17.0 0.0 32 +17 +24 1029.4 1026.5
15 17.04 С 3-5
{8}
10 км ясно +15.5 +3.9 46 +15 +18 1029.0 1026.1
18 17.04 СВ 3-6
{8}
10 км ясно +11.9 +0.6 46 +11 +11 1030.1 1027.2 +18.5
21 17.04 СВ 2-2
{5}
10 км ясно +7.7 +0.4 60 +6 +6 1031.1 1028.1
00 18.04 штиль 0-1
{3}
10 км ясно +3.0 +0.6 84 +2 +2 1031.8 1028.8
03 18.04 СВ 1-1
{2}
10 км ясно +1.6 +0.3 91 -0 -0 1032.3 1029.3 +0.9
06 18.04 штиль 0-1
{2}
10 км ясно +11.1 +2.9 57 +11 +15 1033.4 1030.5 +0.8
09 18.04 С 3-5
{5}
10 км ясно +17.4 +0.9 33 +17 +26 1034.2 1031.3
12 18.04 СЗ 4-7
{7}
10 км ясно +17.4 +1.3 34 +17 +25 1033.7 1030.8
15 18.04 С 5-8
{8}
10 км ясно +1.6 +1.7 100 -4 -2 1033.1 1030.2
18 18.04 С 1-2
{8}
10 км ясно +10.8 +2.5 56 +11 +11 1033.6 1030.7 +18.5
21 18.04 З 1-1
{2}
10 км ясно +3.7 +2.5 92 +2 +2 1034.1 1031.1
00 19.04 ЮВ 1-1
{1}
4000 м дымка ясно +1.1 +0.6 96 -1 -1 1034.6 1031.6
03 19.04 ЮВ 1-1
{1}
н/о н/о -0.4 -0.8 97 -3 -3 1034.7 1031.6 -0.4
06 19.04 ЮВ 1-1
{1}
2000 м дымка ясно +7.5 +6.8 95 +6 +10 1035.2 1032.2 -0.6
09 19.04 С 3-5
{5}
10 км ясно +14.8 +1.7 41 +14 +23 1035.5 1032.6
12 19.04 С 3-6
{6}
10 км ясно +15.4 +2.8 43 +15 +24 1035.4 1032.6
15 19.04 С 4-7
{8}
10 км ясно +13.0 -3.1 32 +12 +14 1034.2 1031.3
18 19.04 СЗ 1-2
{7}
10 км ясно +6.7 +3.3 79 +6 +6 1033.8 1030.8 +16.3
21 19.04 СЗ 1-2
{4}
4000 м дымка ясно +3.7 +2.7 93 +2 +2 1033.4 1030.4
00 20.04 ЮВ 1-1
{2}
4000 м дымка ясно +0.2 -0.4 96 -2 -2 1032.5 1029.5
03 20.04 В 1-1
{1}
4000 м дымка 9/0
[Ci fib]
-0.2 -0.6 97 -2 -2 1032.1 1029.0 -0.8
06 20.04 штиль 0-1
{1}
4000 м дымка 9/0
[Ci fib]
+4.9 +4.5 97 +4 +7 1032.1 1029.1 -0.8
09 20.04 СЗ 4-5
{5}
10 км 9/0
[Ci fib]
+11.6 +4.9 63 +10 +16 1031.7 1028.8
12 20.04 СЗ 5-8
{9}
10 км ясно +11.8 +3.1 55 +10 +16 1031.2 1028.3
15 20.04 СЗ 4-6
{9}
10 км 9/0
[Ci fib]
+10.4 +2.5 58 +8 +10 1030.0 1027.1
18 20.04 СЗ 3-4
{8}
10 км ясно +7.4 +3.2 75 +5 +5 1029.3 1026.3 +13.2
21 20.04 СЗ 3-5
{5}
10 км 8/8 300 м
[Sc]
+7.5 +3.8 77 +5 +5 1028.5 1025.5
00 21.04 СЗ 2-4
{5}
10 км 4/4 300 м
[Sc]
+6.6 +2.4 75 +4 +4 1026.8 1023.8
03 21.04 Ю 1-1
{3}
4000 м дымка 3/3 300 м
[Sc]
+2.2 +0.9 91 0 0 1025.8 1022.8 +2.1
06 21.04 Ю 1-2
{2}
4000 м дымка 8/8 300 м
[Sc]
+4.6 +3.6 93 +3 +4 1024.4 1021.4 +1.7
09 21.04 З 4-6
{6}
10 км 8/0
[Ci fib]
+13.3 -0.5 39 +12 +18 1022.4 1019.5
12 21.04 СЗ 3-4
{8}
10 км 3/0
[Ci fib]
+12.5 +4.0 56 +11 +20 1021.3 1018.4
15 21.04 СВ 4-7
{7}
10 км 4/3 300 м
[Cu Sc Ci fib]
+14.8 +2.9 45 +14 +16 1020.6 1017.7
18 21.04 СВ 3-5
{8}
10 км ясно +10.3 +2.5 58 +9 +9 1021.8 1018.9 +15.3
21 21.04 СВ 1-2
{5}
10 км ясно +5.4 +1.4 75 +4 +4 1022.5 1019.5
00 22.04 СВ 1-2
{3}
10 км ясно +4.4 +1.4 81 +3 +3 1022.8 1019.8
03 22.04 СВ 2-3
{3}
10 км ясно +3.6 +2.2 91 +1 +1 1023.2 1020.2 +3.5
06 22.04 В 2-5
{6}
10 км ясно +9.6 +5.9 78 +8 +11 1024.4 1021.5 +3.5
09 22.04 ЮВ 5-7
{8}
10 км ясно +14.7 +5.7 55 +13 +19 1024.8 1021.9
12 22.04 ЮВ 5-9
{10}
10 км 3/3 300 м
[Cu hum]
+17.8 +4.9 43 +17 +22 1024.4 1021.6
15 22.04 ЮВ 7-11
{12}
10 км 4/4 300 м
[Cu hum]
+17.8 +2.7 36 +17 +18 1024.4 1021.6
18 22.04 В 2-3
{10}
10 км ясно +15.3 +3.0 44 +15 +15 1024.8 1021.9 +19.1
21 22.04 В 2-4
{4}
10 км ясно +11.9 +2.4 52 +11 +11 1025.7 1022.8
00 23.04 ЮВ 2-3
{5}
10 км ясно +9.8 -0.6 48 +9 +9 1026.0 1023.1
03 23.04 В 2-3
{4}
10 км ясно +8.7 -2.3 46 +7 +7 1026.1 1023.2 +8.4
06 23.04 В 4-6
{7}
10 км ясно +13.8 -2.8 32 +13 +15 1026.2 1023.2 +8.4
09 23.04 В 7-13
{13}
10 км ясно +18.2 -4.0 22 +17 +21 1025.2 1022.4
12 23.04 ЮВ 8-13
{16}
10 км ясно +19.9 -3.9 20 +19 +21 1023.2 1020.4
15 23.04 ЮВ 6-11
{15}
10 км ясно +20.1 -4.3 19 +20 +21 1020.9 1018.1
18 23.04 В 5-8
{15}
10 км ясно +17.6 -4.1 22 +17 +17 1020.7 1017.9 +21.1
21 23.04 В 4-7
{8}
10 км ясно +15.0 -2.9 29 +14 +14 1020.7 1017.8
00 24.04 ЮВ 4-7
{9}
10 км ясно +13.0 -3.1 32 +12 +12 1020.1 1017.2
03 24.04 В 4-8
{9}
10 км ясно +11.5 -2.3 38 +10 +10 1019.1 1016.2 +11.3
06 24.04 ЮВ 6-10
{11}
10 км ясно +13.9 -1.4 35 +12 +13 1019.0 1016.1 +11.3

 

Местоположение метеостанции Мамоново (Калининградская область, Россия): широта 54.47 долгота 19.93 высота над уровнем моря 23 м.

В архиве по умолчанию представлена погода в Мамоново за последнюю неделю. Архивные данные за месяц целиком и за предыдущие месяцы, начиная с января 2011 года, Вы можете получить, выбрав интересующий диапазон дат из раскрывающегося списка и нажав кнопку "Ввод!".


*Определитесь, кто Вы:
робот инопланетянин человек

Внимание! Время в таблицах - всемирное. Для получения местного времени необходимо прибавить поправку, которая равна 2 ч.

Смотрите также архив погоды в соседних городах и на ближайших метеорологических станциях:

Погода в Балтийске (Калининградская область, Россия) (20 км)
Погода в Рыбном Порту (Калининградская область, Россия) (42 км)
Погода в Эльблонге (Польша) (47 км)
Погода в Калининграде (Калининградская область, Россия) (51 км)
Погода в Пионерском (Калининградская область, Россия) (56 км)
Погода в Хеле (Польша) (73 км)
Погода в Ольштыне (Польша) (84 км)
Погода в Железнодорожном (Калининградская область, Россия) (89 км)
Погода на Авиабазе Гдыня-Оксывье (Польша) (92 км)
Погода в Рыбачем (Калининградская область, Россия) (96 км)

Пояснения к столбцам:

Ветер - указаны скорость ветра в м/с - средняя за 10 мин, порывы в срок и между сроками (в фигурных скобках) и направление, откуда дует ветер: С - северный, СВ - северо-восточный, В - восточный, ЮВ - юго-восточный, Ю - южный, ЮЗ - юго-западный, З - западный, СЗ - северо-западный.
Видимость - горизонтальная дальность видимости в метрах или километрах. При видимости от 1 до 10 км при отсутствии осадков обычно наблюдается дымка, при ухудшении видимости до 1 км и менее - туман. В сухую погоду видимость может ухудшаться дымом, пылью или мглою.
Явления - указаны атмосферные явления, наблюдавшиеся в срок или в последний час перед сроком; фигурными скобками обозначены явления, наблюдавшиеся между сроками (за 1-3 часа до срока); квадратными скобками обозначены град или гололедные отложения с указанием их диаметра в мм.
Облачность - указаны через наклонную черту общая и нижняя облачность в баллах и высота нижней границы облаков в метрах; квадратными скобками обозначены формы облаков: Ci - перистые, Cs - перисто-слоистые, Cc - перисто-кучевые, Ac - высококучевые, As - высокослоистые, Sc - слоисто-кучевые, Ns - слоисто-дождевые, Cu - кучевые, Cb - кучево-дождевые. Подробнее классификацию облаков см. в Атласе облаков (PDF).
T - Температура воздуха - температура, измеренная на высоте 2 м над землей.
Td - Температура точки росы - температура, при понижении до которой содержащийся в воздухе водяной пар достигнет насыщения.
f - Относительная влажность воздуха - влажноcть воздуха, измеренная на высоте 2 м над землей.
Te - Эффективная температура - температура, которую ощущает одетый по сезону человек в тени. Характеристика душности погоды. При расчете учитывается влияние влажности воздуха и скорости ветра на теплоощущения человека.
Tes - Эффективная температура на солнце - температура, которую ощущает человек, с поправкой на солнечный нагрев. Характеристика знойности погоды. Зависит от высоты солнца над горизонтом, облачности и скорости ветра. Ночью, в пасмурную погоду, а также при ветре 12 м/с и более поправка равна нулю.
P - Атмосферное давление - приведенное к уровню моря атмосферное давление.
Po - Атмосферное давление - измеренное на уровне метеостанции атмосферное давление.
Tmin - Минимальная температура - минимум температуры воздуха на высоте 2 м над землей.
Tmax - Максимальная температура - максимум температуры воздуха на высоте 2 м над землей.
R - Количество осадков - Количество выпавших осадков за период времени, мм. При наведении курсора мыши на число - период времени, за который выпало указанное количество осадков.
R24 - Количество осадков - Количество выпавших осадков за 24 часа, мм.
S - Снежный покров - Высота снежного покрова, см. При наведении курсора мыши на число - состояние снежного покрова и степень покрытия местности в баллах.